Location: Newark
(22.3060°N, 114.2134°E)
Time: 07:36:00
(UTC+00:00)

Explorer 11/Cluster Stage 4 - Pass Details

Date: 01 August 2021
Orbit: 467 x 1256 km, 28.8° (Epoch: 24 September)

Event Time Altitude Azimuth Distance (km) Brightness Sun altitude
Rises 04:51:29 0° 287° (WNW) 4,188 10.4 83.3°
Reaches altitude 10° 04:54:33 10° 291° (WNW) 3,190 9.9 82.7°
Maximum altitude 05:02:32 62° 11° (N) 1,260 8.8 81.1°
Drops below altitude 10° 05:09:23 10° 91° (E) 2,759 9.4 79.7°
Sets 05:11:53 0° 95° (E) 3,593 9.9 79.2°
